| time (UTC) | temp C | wind direction | speed KPH | gust KPH | rain 1hr cm | rain 24hr cm | rain mn cm | humidity % | barometer mb |
| 20260508044516 | 4 | 296 | 4.8 | 19.3 | 0.00 | 0.00 | 0.00 | 73 | 1011.4 |
| 20260508043021 | 4 | 303 | 8.0 | 14.5 | 0.00 | 0.00 | 0.00 | 72 | 1011.4 |
| 20260508041524 | 3 | 268 | 1.6 | 8.0 | 0.00 | 0.00 | 0.00 | 75 | 1011.1 |
| 20260508040036 | 3 | 273 | 1.6 | 6.4 | 0.00 | 0.00 | 0.00 | 75 | 1011.1 |
| 20260508034511 | 2 | 270 | 1.6 | 8.0 | 0.00 | 0.00 | 0.00 | 79 | 1011.1 |
| 20260508033021 | 2 | 297 | 0.0 | 3.2 | 0.00 | 0.00 | 0.00 | 80 | 1011.1 |
| 20260508031529 | 2 | 297 | 0.0 | 1.6 | 0.00 | 0.00 | 0.00 | 76 | 1011.0 |
| 20260508030025 | 2 | 297 | 0.0 | 0.0 | 0.00 | 0.00 | 0.00 | 74 | 1010.9 |
| 20260508024540 | 3 | 297 | 0.0 | 0.0 | 0.00 | 0.00 | 0.00 | 70 | 1011.0 |
| 20260508023024 | 3 | 297 | 0.0 | 1.6 | 0.00 | 0.00 | 0.00 | 66 | 1011.0 |
| 20260508021519 | 4 | 297 | 0.0 | 1.6 | 0.00 | 0.00 | 0.00 | 67 | 1011.0 |
| 20260508020022 | 4 | 297 | 0.0 | 3.2 | 0.00 | 0.00 | 0.00 | 63 | 1011.1 |
| 20260508014542 | 5 | 297 | 0.0 | 3.2 | 0.00 | 0.00 | 0.00 | 63 | 1011.2 |
| 20260508013029 | 5 | 297 | 0.0 | 3.2 | 0.00 | 0.00 | 0.00 | 61 | 1011.2 |
| 20260508011520 | 6 | 297 | 0.0 | 3.2 | 0.00 | 0.00 | 0.00 | 56 | 1011.0 |
| 20260508010027 | 6 | 277 | 0.0 | 4.8 | 0.00 | 0.00 | 0.00 | 58 | 1011.0 |
| 20260508004527 | 6 | 319 | 1.6 | 9.7 | 0.00 | 0.00 | 0.00 | 53 | 1010.7 |
| 20260508003031 | 7 | 313 | 3.2 | 8.0 | 0.00 | 0.00 | 0.00 | 53 | 1010.7 |
| 20260508001512 | 7 | 326 | 3.2 | 8.0 | 0.00 | 0.00 | 0.00 | 50 | 1010.6 |
| 20260508000019 | 7 | 340 | 3.2 | 14.5 | 0.00 | 0.00 | 0.00 | 47 | 1010.4 |
| 20260507234504 | 7 | 13 | 4.8 | 12.9 | 0.00 | 0.00 | 0.00 | 46 | 1010.4 |
| 20260507233006 | 8 | 10 | 6.4 | 16.1 | 0.00 | 0.00 | 0.00 | 44 | 1010.2 |
| 20260507231512 | 8 | 342 | 4.8 | 17.7 | 0.00 | 0.00 | 0.00 | 43 | 1010.2 |
| 20260507230017 | 8 | 347 | 6.4 | 16.1 | 0.00 | 0.00 | 0.00 | 42 | 1010.2 |
| 20260507224520 | 8 | 236 | 4.8 | 16.1 | 0.00 | 0.00 | 0.00 | 43 | 1010.2 |
| 20260507223004 | 8 | 295 | 3.2 | 12.9 | 0.00 | 0.00 | 0.00 | 43 | 1010.3 |
| 20260507221510 | 8 | 351 | 4.8 | 19.3 | 0.00 | 0.00 | 0.00 | 42 | 1010.2 |
| 20260507220014 | 9 | 318 | 8.0 | 20.9 | 0.00 | 0.00 | 0.00 | 40 | 1010.2 |
| 20260507214519 | 9 | 350 | 6.4 | 14.5 | 0.00 | 0.00 | 0.00 | 39 | 1010.4 |
| 20260507213024 | 9 | 28 | 4.8 | 20.9 | 0.00 | 0.00 | 0.00 | 41 | 1010.4 |
| 20260507211505 | 10 | 267 | 9.7 | 20.9 | 0.00 | 0.00 | 0.00 | 41 | 1010.3 |
| 20260507210011 | 10 | 321 | 16.1 | 25.7 | 0.00 | 0.00 | 0.00 | 36 | 1010.3 |
| 20260507204515 | 10 | 317 | 12.9 | 24.1 | 0.00 | 0.00 | 0.00 | 39 | 1010.3 |
| 20260507203019 | 10 | 300 | 11.3 | 24.1 | 0.00 | 0.00 | 0.00 | 41 | 1010.3 |
| 20260507201527 | 10 | 323 | 8.0 | 30.6 | 0.00 | 0.00 | 0.00 | 44 | 1010.6 |
| 20260507200010 | 10 | 305 | 16.1 | 29.0 | 0.00 | 0.00 | 0.00 | 43 | 1010.7 |
| 20260507194512 | 10 | 350 | 11.3 | 25.7 | 0.00 | 0.00 | 0.00 | 45 | 1010.9 |
| 20260507193020 | 10 | 306 | 9.7 | 24.1 | 0.00 | 0.00 | 0.00 | 46 | 1011.0 |
| 20260507191523 | 10 | 9 | 9.7 | 22.5 | 0.00 | 0.00 | 0.00 | 48 | 1011.2 |
| 20260507190028 | 9 | 341 | 16.1 | 25.7 | 0.00 | 0.00 | 0.00 | 50 | 1011.5 |
| 20260507184513 | 9 | 355 | 14.5 | 24.1 | 0.00 | 0.00 | 0.00 | 50 | 1011.5 |
| 20260507183014 | 8 | 322 | 14.5 | 24.1 | 0.00 | 0.00 | 0.00 | 51 | 1011.7 |
| 20260507181520 | 10 | 308 | 12.9 | 24.1 | 0.00 | 0.00 | 0.00 | 53 | 1011.6 |
| 20260507180023 | 8 | 293 | 12.9 | 27.4 | 0.00 | 0.00 | 0.00 | 52 | 1011.7 |
| 20260507174526 | 8 | 326 | 6.4 | 20.9 | 0.00 | 0.00 | 0.00 | 53 | 1011.6 |
| 20260507173013 | 8 | 349 | 11.3 | 29.0 | 0.00 | 0.00 | 0.00 | 53 | 1011.7 |
| 20260507171516 | 8 | 251 | 8.0 | 20.9 | 0.00 | 0.00 | 0.00 | 54 | 1011.7 |
| 20260507170025 | 8 | 328 | 8.0 | 24.1 | 0.00 | 0.00 | 0.00 | 57 | 1011.8 |
| 20260507164525 | 8 | 338 | 12.9 | 24.1 | 0.00 | 0.00 | 0.00 | 57 | 1011.9 |
| 20260507163027 | 8 | 319 | 11.3 | 25.7 | 0.00 | 0.00 | 0.00 | 56 | 1012.1 |
| 20260507161516 | 8 | 262 | 11.3 | 27.4 | 0.00 | 0.00 | 0.00 | 56 | 1012.3 |
| 20260507160021 | 7 | 348 | 9.7 | 17.7 | 0.00 | 0.00 | 0.00 | 59 | 1012.4 |
| 20260507154526 | 7 | 19 | 6.4 | 16.1 | 0.00 | 0.00 | 0.00 | 62 | 1012.4 |
| 20260507153003 | 7 | 316 | 12.9 | 19.3 | 0.00 | 0.00 | 0.00 | 58 | 1012.7 |
| 20260507151505 | 6 | 315 | 11.3 | 19.3 | 0.00 | 0.00 | 0.00 | 59 | 1012.8 |
| 20260507150010 | 6 | 307 | 8.0 | 20.9 | 0.00 | 0.00 | 0.00 | 61 | 1013.1 |
| 20260507144505 | 5 | 286 | 4.8 | 12.9 | 0.00 | 0.00 | 0.00 | 61 | 1013.2 |
| 20260507143004 | 5 | 319 | 4.8 | 11.3 | 0.00 | 0.00 | 0.00 | 60 | 1013.3 |
| 20260507141503 | 5 | 316 | 3.2 | 12.9 | 0.00 | 0.00 | 0.00 | 62 | 1013.3 |
| 20260507140004 | 4 | 296 | 3.2 | 16.1 | 0.00 | 0.03 | 0.00 | 64 | 1013.3 |
| 20260507134503 | 5 | 323 | 8.0 | 22.5 | 0.00 | 0.05 | 0.00 | 61 | 1013.5 |
| 20260507133003 | 5 | 302 | 11.3 | 19.3 | 0.00 | 0.08 | 0.00 | 62 | 1013.3 |
| 20260507131504 | 5 | 319 | 6.4 | 17.7 | 0.00 | 0.10 | 0.00 | 66 | 1013.2 |
| 20260507130005 | 4 | 277 | 6.4 | 12.9 | 0.00 | 0.10 | 0.00 | 65 | 1013.1 |
| 20260507124513 | 5 | 344 | 3.2 | 12.9 | 0.00 | 0.15 | 0.00 | 68 | 1013.1 |
| 20260507123005 | 3 | 340 | 9.7 | 16.1 | 0.00 | 0.20 | 0.00 | 68 | 1013.1 |
| 20260507121505 | 3 | 307 | 4.8 | 16.1 | 0.00 | 0.23 | 0.00 | 69 | 1013.1 |
| 20260507120005 | 3 | 318 | 3.2 | 16.1 | 0.00 | 0.25 | 0.00 | 73 | 1013.1 |
| 20260507114509 | 3 | 333 | 6.4 | 14.5 | 0.00 | 0.28 | 0.00 | 73 | 1013.0 |
| 20260507113008 | 2 | 292 | 1.6 | 8.0 | 0.00 | 0.33 | 0.00 | 78 | 1012.8 |
| 20260507111504 | 2 | 339 | 4.8 | 14.5 | 0.00 | 0.38 | 0.00 | 76 | 1012.8 |
| 20260507110012 | 1 | 298 | 4.8 | 11.3 | 0.00 | 0.46 | 0.00 | 81 | 1012.7 |
| 20260507104508 | 0 | 306 | 1.6 | 6.4 | 0.00 | 0.48 | 0.00 | 86 | 1012.6 |
| 20260507103010 | 0 | 273 | 0.0 | 4.8 | 0.00 | 0.53 | 0.00 | 90 | 1012.6 |
| 20260507101510 | 0 | 309 | 0.0 | 4.8 | 0.00 | 0.56 | 0.00 | 90 | 1012.3 |
| 20260507100010 | 0 | 269 | 0.0 | 1.6 | 0.00 | 0.58 | 0.00 | 89 | 1012.6 |
| 20260507094508 | 0 | 269 | 0.0 | 4.8 | 0.00 | 0.58 | 0.00 | 88 | 1012.4 |
| 20260507093008 | 0 | 249 | 1.6 | 4.8 | 0.00 | 0.61 | 0.00 | 88 | 1012.5 |
| 20260507091532 | 0 | 252 | 0.0 | 4.8 | 0.00 | 0.66 | 0.00 | 86 | 1012.5 |
| 20260507090011 | 0 | 314 | 0.0 | 3.2 | 0.00 | 0.69 | 0.00 | 86 | 1012.5 |
| 20260507084504 | 0 | 246 | 0.0 | 3.2 | 0.00 | 0.71 | 0.00 | 86 | 1012.6 |
| 20260507083016 | 0 | 313 | 0.0 | 4.8 | 0.00 | 0.74 | 0.00 | 85 | 1012.5 |
| 20260507081513 | 0 | 284 | 0.0 | 3.2 | 0.00 | 0.76 | 0.00 | 84 | 1012.6 |
| 20260507080013 | 1 | 284 | 0.0 | 4.8 | 0.00 | 0.79 | 0.00 | 82 | 1012.7 |
| 20260507074513 | 1 | 284 | 0.0 | 6.4 | 0.00 | 0.81 | 0.00 | 81 | 1012.4 |
| 20260507073007 | 2 | 308 | 0.0 | 6.4 | 0.00 | 0.84 | 0.00 | 80 | 1012.3 |
| 20260507071512 | 2 | 306 | 1.6 | 4.8 | 0.00 | 0.91 | 0.00 | 78 | 1012.2 |
| 20260507070016 | 2 | 287 | 1.6 | 14.5 | 0.00 | 0.94 | 0.00 | 75 | 1012.0 |
| 20260507064515 | 2 | 315 | 4.8 | 12.9 | 0.00 | 0.94 | 0.00 | 74 | 1012.0 |
| 20260507063006 | 2 | 308 | 4.8 | 14.5 | 0.00 | 0.97 | 0.00 | 74 | 1012.2 |
| 20260507061525 | 2 | 333 | 4.8 | 14.5 | 0.00 | 0.99 | 0.00 | 74 | 1012.2 |
| 20260507060026 | 3 | 323 | 4.8 | 17.7 | 0.00 | 1.02 | 0.00 | 72 | 1012.4 |
| 20260507054515 | 3 | 323 | 11.3 | 19.3 | 0.00 | 1.04 | 0.00 | 75 | 1012.3 |
| 20260507053004 | 3 | 305 | 11.3 | 19.3 | 0.00 | 1.04 | 0.00 | 82 | 1012.4 |
| 20260507051507 | 3 | 331 | 3.2 | 14.5 | 0.00 | 1.04 | 0.00 | 88 | 1012.3 |
| 20260507050027 | 3 | 300 | 6.4 | 16.1 | 0.00 | 1.04 | 0.00 | 90 | 1012.2 |